Miles City, MT

6:35 AM MST on January 22, 2017 (GMT -0700)
Wiley

Weather History for KMLS - November, 2010

Change the Weather History Date:

Sunday, November 21, 2010

  Actual Average Record
Temperature  
Mean Temperature 1 °F 29 °F  
Max Temperature 8 °F 40 °F 65 °F (2012)
Min Temperature -6 °F 18 °F -19 °F (1978)
Degree Days  
Heating Degree Days 64 36  
Month to date heating degree days 625 642  
Since 1 July heating degree days 1273 1453  
Cooling Degree Days 0 0  
Month to date cooling degree days 0 0  
Year to date cooling degree days 609 730  
Moisture  
Dew Point -4 °F    
Average Humidity 83    
Maximum Humidity 91    
Minimum Humidity 75    
Precipitation  
Precipitation T in 0.01 in 0.10 in (1956)
Month to date precipitation 0.47 0.30  
Year to date precipitation 17.75 12.06  
Snow  
Snow 0.00 in - - ()
Snow Depth 0.00 in    
Sea Level Pressure  
Sea Level Pressure 30.07 in    
Wind  
Wind Speed 6 mph (NW)    
Max Wind Speed 16 mph    
Max Gust Speed 18 mph    
Visibility 10 miles    
Events      
T = Trace of Precipitation, MM = Missing Value Source: NWS Daily Summary

Daily Weather History Graph

Daily Weather History Graph

Search for Another Location

Airport or City:

Trip Planner

Search our weather history database for the weather conditions in past years. The results will help you decide how hot, cold, wet, or windy it might be!

Date:

Astronomy

Nov. 21, 2010 Rise Set
Actual Time 7:13 AM MST 4:24 PM MST
Civil Twilight 6:40 AM MST 4:58 PM MST
Nautical Twilight 6:03 AM MST 5:35 PM MST
Astronomical Twilight 5:27 AM MST 6:10 PM MST
Moon 4:12 PM MST (11/21) 7:22 AM MST (11/21)
Length of Visible Light 10h 17m
Length of Day
9h 11m
Full, 100% of the Moon is Illuminated
Nov 21
Full
Nov 28
Last Quarter
Dec 5
New
Dec 13
First Quarter
Dec 21
Full

Hourly Weather History & Observations

Time (MST) Temp. Windchill Dew Point Humidity Pressure Visibility Wind Dir Wind Speed Gust Speed Precip Events Conditions
12:53 AM 7.0 °F -3.3 °F 3.9 °F 87% 30.03 in 10.0 mi WNW 5.8 mph - 0.00 in   Overcast
1:37 AM 6.8 °F -8.6 °F 3.2 °F 85% 29.89 in 10.0 mi WNW 11.5 mph - N/A   Scattered Clouds
1:53 AM 7.0 °F -7.5 °F 3.9 °F 87% 30.04 in 10.0 mi WNW 10.4 mph - N/A   Clear
2:53 AM 3.9 °F -10.4 °F 1.0 °F 88% 30.04 in 10.0 mi WNW 9.2 mph - N/A   Clear
3:53 AM 3.0 °F -9.3 °F -0.9 °F 84% 30.06 in 10.0 mi WNW 6.9 mph - N/A   Clear
4:53 AM -0.0 °F -13.0 °F -2.9 °F 88% 30.08 in 10.0 mi West 6.9 mph - N/A   Clear
5:53 AM -4.0 °F -21.2 °F -7.1 °F 87% 30.08 in 10.0 mi WSW 10.4 mph - N/A   Clear
6:53 AM -5.1 °F -23.5 °F -9.0 °F 83% 30.09 in 10.0 mi West 11.5 mph - N/A   Clear
7:53 AM -4.0 °F -23.0 °F -8.0 °F 83% 30.10 in 10.0 mi West 12.7 mph - N/A   Clear
8:53 AM -5.1 °F -21.5 °F -9.0 °F 83% 30.11 in 10.0 mi West 9.2 mph - N/A   Clear
9:53 AM -2.9 °F -16.5 °F -7.1 °F 82% 30.12 in 10.0 mi West 6.9 mph - N/A   Clear
10:53 AM -0.0 °F -13.0 °F -6.0 °F 76% 30.11 in 10.0 mi West 6.9 mph - N/A   Clear
12:53 PM 1.0 °F -6.7 °F -4.0 °F 79% 30.09 in 10.0 mi SW 3.5 mph - N/A   Clear
1:53 PM 1.9 °F - -4.0 °F 76% 30.08 in 10.0 mi Calm Calm - N/A   Clear
2:53 PM 1.9 °F - -4.0 °F 76% 30.09 in 10.0 mi Calm Calm - N/A   Clear
3:53 PM 1.0 °F -6.7 °F -5.1 °F 75% 30.08 in 10.0 mi NW 3.5 mph - N/A   Clear
4:53 PM -2.0 °F -12.2 °F -6.0 °F 83% 30.06 in 10.0 mi NNE 4.6 mph - N/A   Clear
5:53 PM -2.0 °F -13.9 °F -6.0 °F 83% 30.09 in 10.0 mi North 5.8 mph - N/A   Clear
6:53 PM -2.0 °F -17.7 °F -7.1 °F 79% 30.06 in 10.0 mi NNE 9.2 mph - N/A   Clear
7:53 PM -2.0 °F -16.6 °F -6.0 °F 83% 30.06 in 10.0 mi NNE 8.1 mph - N/A   Scattered Clouds
8:53 PM -2.0 °F -12.2 °F -7.1 °F 79% 30.08 in 10.0 mi NNE 4.6 mph - N/A   Mostly Cloudy
9:53 PM -0.0 °F - -4.0 °F 83% 30.08 in 10.0 mi Calm Calm - N/A   Mostly Cloudy
10:53 PM -0.9 °F -12.7 °F -5.1 °F 83% 30.07 in 10.0 mi NNE 5.8 mph - N/A   Mostly Cloudy
11:53 PM -0.9 °F -14.1 °F -5.1 °F 83% 30.06 in 10.0 mi North 6.9 mph - N/A   Overcast